TOM23AL EGKK-LECO

Flight info

Callsign TOM23AL
Flight time N/A
Altitude 35000
Route IMVUR N63 SAM M195 MARUK/N0455F370 M195 LORKU DCT EBOMO DCT COQUE DCT KORUL DCT KORAV
Aircraft B738/M-SDE2E3FGHIRWXY/LB1

Departure

Time 2026-05-04 14:28
Airport London Gatwick Airport (EGKK)

Arrival

Time N/A
Airport A Coruña Airport (LECO)
Time Latitude Longitude Altitude Speed Heading
2026-05-04 14:03 51.15513 -0.16722 204 ft 0 kts 347°
2026-05-04 14:12 51.15511 -0.16722 204 ft 1 kts 347°
2026-05-04 14:13 51.15495 -0.16715 214 ft 3 kts 346°
2026-05-04 14:13 51.15478 -0.16709 216 ft 3 kts 340°
2026-05-04 14:13 51.15463 -0.16694 211 ft 3 kts 304°
2026-05-04 14:13 51.15455 -0.16667 216 ft 3 kts 279°
2026-05-04 14:14 51.15454 -0.16636 213 ft 2 kts 261°
2026-05-04 14:14 51.15456 -0.16621 214 ft 0 kts 258°
2026-05-04 14:17 51.15455 -0.16624 215 ft 2 kts 258°
2026-05-04 14:17 51.15448 -0.16687 216 ft 8 kts 265°
2026-05-04 14:17 51.15453 -0.16792 210 ft 6 kts 265°
2026-05-04 14:18 51.15443 -0.16879 209 ft 10 kts 258°
2026-05-04 14:18 51.15415 -0.17082 207 ft 9 kts 258°
2026-05-04 14:19 51.15375 -0.17265 211 ft 9 kts 250°
2026-05-04 14:19 51.15355 -0.17346 208 ft 8 kts 235°
2026-05-04 14:19 51.15312 -0.17394 208 ft 8 kts 238°
2026-05-04 14:19 51.15297 -0.17473 209 ft 7 kts 261°
2026-05-04 14:20 51.15287 -0.17552 208 ft 7 kts 258°
2026-05-04 14:20 51.15275 -0.17648 204 ft 14 kts 257°
2026-05-04 14:20 51.15252 -0.17811 206 ft 15 kts 257°
2026-05-04 14:21 51.15208 -0.18127 204 ft 14 kts 257°
2026-05-04 14:21 51.15189 -0.18274 213 ft 13 kts 262°
2026-05-04 14:21 51.15177 -0.18405 206 ft 12 kts 257°
2026-05-04 14:21 51.15161 -0.18516 212 ft 9 kts 257°
2026-05-04 14:22 51.15153 -0.18575 209 ft 5 kts 257°
2026-05-04 14:22 51.15137 -0.18693 204 ft 15 kts 258°
2026-05-04 14:22 51.15116 -0.18849 206 ft 14 kts 258°
2026-05-04 14:22 51.15096 -0.18992 208 ft 13 kts 257°
2026-05-04 14:23 51.15052 -0.19253 211 ft 12 kts 225°
2026-05-04 14:23 51.14978 -0.19278 211 ft 11 kts 211°
2026-05-04 14:23 51.14949 -0.19387 209 ft 11 kts 258°
2026-05-04 14:24 51.14927 -0.19549 214 ft 20 kts 258°
2026-05-04 14:24 51.14901 -0.19740 206 ft 16 kts 258°
2026-05-04 14:24 51.14877 -0.19915 208 ft 16 kts 257°
2026-05-04 14:24 51.14853 -0.20082 212 ft 15 kts 257°
2026-05-04 14:25 51.14831 -0.20243 203 ft 15 kts 257°
2026-05-04 14:25 51.14790 -0.20543 206 ft 13 kts 257°
2026-05-04 14:25 51.14770 -0.20684 203 ft 13 kts 257°
2026-05-04 14:26 51.14751 -0.20821 211 ft 13 kts 258°
2026-05-04 14:26 51.14728 -0.20996 210 ft 19 kts 257°
2026-05-04 14:26 51.14701 -0.21184 204 ft 15 kts 257°
2026-05-04 14:26 51.14673 -0.21320 208 ft 12 kts 225°
2026-05-04 14:27 51.14623 -0.21333 207 ft 6 kts 171°
2026-05-04 14:27 51.14585 -0.21319 214 ft 6 kts 163°
2026-05-04 14:27 51.14530 -0.21249 212 ft 14 kts 122°
2026-05-04 14:27 51.14538 -0.21028 206 ft 47 kts 78°
2026-05-04 14:28 51.14673 -0.20066 209 ft 128 kts 78°
2026-05-04 14:28 51.14909 -0.18365 455 ft 174 kts 77°
2026-05-04 14:28 51.15155 -0.16425 1498 ft 181 kts 78°
2026-05-04 14:28 51.15414 -0.14463 2455 ft 187 kts 77°
2026-05-04 14:29 51.16047 -0.09872 3400 ft 226 kts 77°
2026-05-04 14:29 51.17620 -0.05650 4797 ft 233 kts 27°
2026-05-04 14:30 51.19195 -0.05149 5611 ft 234 kts 354°
2026-05-04 14:30 51.20799 -0.05673 6434 ft 238 kts 336°
2026-05-04 14:30 51.22676 -0.09688 7933 ft 241 kts 272°
2026-05-04 14:31 51.22568 -0.12349 8770 ft 242 kts 260°
2026-05-04 14:31 51.21916 -0.17711 10267 ft 253 kts 258°
2026-05-04 14:32 51.21182 -0.23683 11103 ft 288 kts 258°
2026-05-04 14:32 51.20810 -0.26840 11872 ft 292 kts 258°
2026-05-04 14:32 51.20436 -0.30050 12738 ft 295 kts 258°
2026-05-04 14:32 51.20060 -0.33285 13583 ft 299 kts 258°
2026-05-04 14:33 51.19662 -0.36562 14311 ft 302 kts 257°
2026-05-04 14:33 51.19235 -0.39864 15021 ft 306 kts 257°
2026-05-04 14:33 51.18799 -0.43210 15731 ft 309 kts 257°
2026-05-04 14:33 51.18360 -0.46575 16428 ft 312 kts 256°
2026-05-04 14:34 51.17923 -0.49939 17075 ft 315 kts 256°
2026-05-04 14:34 51.17458 -0.53375 17688 ft 319 kts 252°
2026-05-04 14:34 51.16724 -0.56792 17887 ft 335 kts 245°
2026-05-04 14:34 51.15774 -0.60291 18043 ft 352 kts 244°
2026-05-04 14:35 51.14736 -0.63942 18176 ft 368 kts 244°
2026-05-04 14:35 51.13676 -0.67699 18347 ft 382 kts 244°
2026-05-04 14:35 51.12593 -0.71620 18788 ft 387 kts 244°
2026-05-04 14:35 51.11511 -0.75595 19377 ft 387 kts 245°